owner,sensor,date,latitude,longitude,vertical_datum,direction_of_sea_water_velocity,sea_water_speed,upward_sea_water_velocity,qcFlag 
TABS,ioos:station:wmo:42047:1,2010-07-01T00:00:00Z,27.8966,-93.5973,2.0,349.6953881,34.21184006,-99999.0,'11111222,11111222,99999999' 
TABS,ioos:station:wmo:42047:1,2010-07-01T00:30:00Z,27.8966,-93.5973,2.0,358.0705614,34.44953556,-99999.0,'11111222,11111222,99999999' 
TABS,ioos:station:wmo:42047:1,2010-07-01T01:00:00Z,27.8966,-93.5973,2.0,353.2344543,23.93669359,-99999.0,'11111222,11111222,99999999' 
TABS,ioos:station:wmo:42047:1,2010-07-01T01:30:00Z,27.8966,-93.5973,2.0,2.297877347,19.45564186,-99999.0,'11111222,11111222,99999999' 
TABS,ioos:station:wmo:42047:1,2010-07-01T02:00:00Z,27.8966,-93.5973,2.0,354.379486,26.64812376,-99999.0,'11111222,11111222,99999999' 
TABS,ioos:station:wmo:42047:1,2010-07-01T02:30:00Z,27.8966,-93.5973,2.0,5.962408591,22.43133968,-99999.0,'11111222,11111222,99999999' 
TABS,ioos:station:wmo:42047:1,2010-07-01T03:00:00Z,27.8966,-93.5973,2.0,346.4847532,24.8172702,-99999.0,'11111222,11111222,99999999' 
TABS,ioos:station:wmo:42047:1,2010-07-01T03:30:00Z,27.8966,-93.5973,2.0,346.7376438,16.34596586,-99999.0,'11111222,11111222,99999999' 
TABS,ioos:station:wmo:42047:1,2010-07-01T04:00:00Z,27.8966,-93.5973,2.0,359.7470649,20.37019882,-99999.0,'11111222,11144222,99999999' 
TABS,ioos:station:wmo:42047:1,2010-07-01T04:30:00Z,27.8966,-93.5973,2.0,352.7563917,14.3545707,-99999.0,'11111222,11111222,99999999' 
TABS,ioos:station:wmo:42047:1,2010-07-01T05:00:00Z,27.8966,-93.5973,2.0,350.22074,13.36419844,-99999.0,'11111222,11111222,99999999' 
TABS,ioos:station:wmo:42047:1,2010-07-01T05:30:00Z,27.8966,-93.5973,2.0,4.523134166,13.44185999,-99999.0,'11111222,11111222,99999999' 
TABS,ioos:station:wmo:42047:1,2010-07-01T06:00:00Z,27.8966,-93.5973,2.0,331.8570848,14.77707007,-99999.0,'11111222,11111222,99999999' 
TABS,ioos:station:wmo:42047:1,2010-07-01T06:30:00Z,27.8966,-93.5973,2.0,338.5467314,13.15118626,-99999.0,'11111222,11111222,99999999' 
TABS,ioos:station:wmo:42047:1,2010-07-01T07:00:00Z,27.8966,-93.5973,2.0,340.5021367,10.39619642,-99999.0,'11111222,11111222,99999999' 
TABS,ioos:station:wmo:42047:1,2010-07-01T07:30:00Z,27.8966,-93.5973,2.0,330.4813045,7.55005298,-99999.0,'11133222,11111222,99999999' 
TABS,ioos:station:wmo:42047:1,2010-07-01T08:00:00Z,27.8966,-93.5973,2.0,342.0349307,7.71621669,-99999.0,'11133222,11111222,99999999' 
TABS,ioos:station:wmo:42047:1,2010-07-01T08:30:00Z,27.8966,-93.5973,2.0,318.8816826,7.207808266,-99999.0,'11133222,11111222,99999999' 
TABS,ioos:station:wmo:42047:1,2010-07-01T09:00:00Z,27.8966,-93.5973,2.0,291.214487,13.04392579,-99999.0,'11111222,11111222,99999999' 
TABS,ioos:station:wmo:42047:1,2010-07-01T09:30:00Z,27.8966,-93.5973,2.0,290.2673003,6.726440366,-99999.0,'11133222,11111222,99999999' 
TABS,ioos:station:wmo:42047:1,2010-07-01T10:00:00Z,27.8966,-93.5973,2.0,343.7210788,9.66760053,-99999.0,'11133222,11111222,99999999' 
TABS,ioos:station:wmo:42047:1,2010-07-01T10:30:00Z,27.8966,-93.5973,2.0,324.4464564,12.36526182,-99999.0,'11111222,11111222,99999999' 
TABS,ioos:station:wmo:42047:1,2010-07-01T11:00:00Z,27.8966,-93.5973,2.0,304.30383,6.476495966,-99999.0,'11133222,11111222,99999999' 
TABS,ioos:station:wmo:42047:1,2010-07-01T11:30:00Z,27.8966,-93.5973,2.0,299.085786,7.220540146,-99999.0,'11133222,11111222,99999999' 
TABS,ioos:station:wmo:42047:1,2010-07-01T12:00:00Z,27.8966,-93.5973,2.0,312.4261816,5.825366941,-99999.0,'11133222,11111222,99999999' 
TABS,ioos:station:wmo:42047:1,2010-07-01T12:30:00Z,27.8966,-93.5973,2.0,315.7681118,11.08135822,-99999.0,'11111222,11111222,99999999' 
TABS,ioos:station:wmo:42047:1,2010-07-01T13:00:00Z,27.8966,-93.5973,2.0,304.5691669,16.63741566,-99999.0,'11111222,11111222,99999999' 
TABS,ioos:station:wmo:42047:1,2010-07-01T13:30:00Z,27.8966,-93.5973,2.0,306.4512589,16.41043875,-99999.0,'11111222,11111222,99999999' 
TABS,ioos:station:wmo:42047:1,2010-07-01T14:00:00Z,27.8966,-93.5973,2.0,309.86604,19.51667236,-99999.0,'11111222,11111222,99999999' 
TABS,ioos:station:wmo:42047:1,2010-07-01T14:30:00Z,27.8966,-93.5973,2.0,324.0735772,22.59906193,-99999.0,'11111222,11111222,99999999' 
TABS,ioos:station:wmo:42047:1,2010-07-01T15:00:00Z,27.8966,-93.5973,2.0,316.230527,19.76111839,-99999.0,'11111222,11111222,99999999' 
TABS,ioos:station:wmo:42047:1,2010-07-01T15:30:00Z,27.8966,-93.5973,2.0,321.183076,21.60047453,-99999.0,'11111222,11111222,99999999' 
TABS,ioos:station:wmo:42047:1,2010-07-01T16:00:00Z,27.8966,-93.5973,2.0,325.3556463,30.13272308,-99999.0,'11111222,11111222,99999999' 
TABS,ioos:station:wmo:42047:1,2010-07-01T16:30:00Z,27.8966,-93.5973,2.0,317.0947506,30.37638721,-99999.0,'11111222,11111222,99999999' 
TABS,ioos:station:wmo:42047:1,2010-07-01T17:00:00Z,27.8966,-93.5973,2.0,324.3471587,32.3052844,-99999.0,'11111222,11111222,99999999' 
TABS,ioos:station:wmo:42047:1,2010-07-01T17:30:00Z,27.8966,-93.5973,2.0,327.7756707,27.97990886,-99999.0,'11111222,11111222,99999999' 
TABS,ioos:station:wmo:42047:1,2010-07-01T18:00:00Z,27.8966,-93.5973,2.0,328.0183664,28.47154544,-99999.0,'11111222,11111222,99999999' 
TABS,ioos:station:wmo:42047:1,2010-07-01T18:30:00Z,27.8966,-93.5973,2.0,347.9579082,30.53189316,-99999.0,'11111222,11111222,99999999' 
TABS,ioos:station:wmo:42047:1,2010-07-01T19:00:00Z,27.8966,-93.5973,2.0,352.0722783,28.05817172,-99999.0,'11111222,11111222,99999999' 
TABS,ioos:station:wmo:42047:1,2010-07-01T19:30:00Z,27.8966,-93.5973,2.0,2.697901297,27.62061006,-99999.0,'11111222,11111222,99999999' 
TABS,ioos:station:wmo:42047:1,2010-07-01T20:00:00Z,27.8966,-93.5973,2.0,4.260783485,31.49704272,-99999.0,'11111222,11111222,99999999' 
TABS,ioos:station:wmo:42047:1,2010-07-01T20:30:00Z,27.8966,-93.5973,2.0,3.666699718,34.08977559,-99999.0,'11111222,11111222,99999999' 
TABS,ioos:station:wmo:42047:1,2010-07-01T21:00:00Z,27.8966,-93.5973,2.0,6.760211832,36.02041782,-99999.0,'11111222,11111222,99999999' 
TABS,ioos:station:wmo:42047:1,2010-07-01T21:30:00Z,27.8966,-93.5973,2.0,7.045963107,28.69670364,-99999.0,'11111222,11111222,99999999' 
TABS,ioos:station:wmo:42047:1,2010-07-01T22:00:00Z,27.8966,-93.5973,2.0,5.697261697,25.28489075,-99999.0,'11111222,11111222,99999999' 
TABS,ioos:station:wmo:42047:1,2010-07-01T22:30:00Z,27.8966,-93.5973,2.0,10.78948367,32.15849033,-99999.0,'11111222,11111222,99999999' 
TABS,ioos:station:wmo:42047:1,2010-07-01T23:00:00Z,27.8966,-93.5973,2.0,24.92609624,28.92419403,-99999.0,'11111222,11111222,99999999' 
TABS,ioos:station:wmo:42047:1,2010-07-01T23:30:00Z,27.8966,-93.5973,2.0,23.27814833,25.58245688,-99999.0,'11111222,11111222,99999999' 
TABS,ioos:station:wmo:42047:1,2010-07-02T00:00:00Z,27.8966,-93.5973,2.0,37.21155229,26.50647091,-99999.0,'11111222,11111222,99999999' 
TABS,ioos:station:wmo:42047:1,2010-07-02T00:30:00Z,27.8966,-93.5973,2.0,24.9645221,28.33756694,-99999.0,'11111222,11111222,99999999' 
TABS,ioos:station:wmo:42047:1,2010-07-02T01:00:00Z,27.8966,-93.5973,2.0,27.6572287,23.93474671,-99999.0,'11111222,11111222,99999999' 
TABS,ioos:station:wmo:42047:1,2010-07-02T01:30:00Z,27.8966,-93.5973,2.0,26.71145483,21.02357962,-99999.0,'11111222,11111222,99999999' 
TABS,ioos:station:wmo:42047:1,2010-07-02T02:00:00Z,27.8966,-93.5973,2.0,37.01455314,20.61406559,-99999.0,'11111222,11111222,99999999' 
TABS,ioos:station:wmo:42047:1,2010-07-02T02:30:00Z,27.8966,-93.5973,2.0,38.16250804,18.70875998,-99999.0,'11111222,11111222,99999999' 
TABS,ioos:station:wmo:42047:1,2010-07-02T03:00:00Z,27.8966,-93.5973,2.0,20.22029796,17.96729529,-99999.0,'11111222,11111222,99999999' 
TABS,ioos:station:wmo:42047:1,2010-07-02T03:30:00Z,27.8966,-93.5973,2.0,29.46631035,17.84880948,-99999.0,'11111222,11111222,99999999' 
TABS,ioos:station:wmo:42047:1,2010-07-02T04:00:00Z,27.8966,-93.5973,2.0,33.40728592,15.16568825,-99999.0,'11111222,11111222,99999999' 
TABS,ioos:station:wmo:42047:1,2010-07-02T04:30:00Z,27.8966,-93.5973,2.0,9.786655256,9.589546392,-99999.0,'11133222,11111222,99999999' 
TABS,ioos:station:wmo:42047:1,2010-07-02T05:00:00Z,27.8966,-93.5973,2.0,14.80083596,10.72587992,-99999.0,'11111222,11111222,99999999' 
TABS,ioos:station:wmo:42047:1,2010-07-02T05:30:00Z,27.8966,-93.5973,2.0,8.035118398,8.513577391,-99999.0,'11133222,11111222,99999999' 
TABS,ioos:station:wmo:42047:1,2010-07-02T06:00:00Z,27.8966,-93.5973,2.0,26.71382602,6.896056844,-99999.0,'11133222,11111222,99999999' 
TABS,ioos:station:wmo:42047:1,2010-07-02T06:30:00Z,27.8966,-93.5973,2.0,19.59778331,6.857229761,-99999.0,'11133222,11111222,99999999' 
TABS,ioos:station:wmo:42047:1,2010-07-02T07:00:00Z,27.8966,-93.5973,2.0,336.2589513,10.25811874,-99999.0,'11111222,11111222,99999999' 
TABS,ioos:station:wmo:42047:1,2010-07-02T07:30:00Z,27.8966,-93.5973,2.0,337.6668742,10.000125,-99999.0,'11111222,11111222,99999999' 
TABS,ioos:station:wmo:42047:1,2010-07-02T08:00:00Z,27.8966,-93.5973,2.0,351.3262198,11.47120308,-99999.0,'11111222,11111222,99999999' 
TABS,ioos:station:wmo:42047:1,2010-07-02T08:30:00Z,27.8966,-93.5973,2.0,341.6498115,12.86415951,-99999.0,'11111222,11111222,99999999' 
TABS,ioos:station:wmo:42047:1,2010-07-02T09:00:00Z,27.8966,-93.5973,2.0,338.3905111,9.992322052,-99999.0,'11133222,11111222,99999999' 
TABS,ioos:station:wmo:42047:1,2010-07-02T09:30:00Z,27.8966,-93.5973,2.0,9.180730948,9.025613553,-99999.0,'11133222,11111222,99999999' 
TABS,ioos:station:wmo:42047:1,2010-07-02T10:00:00Z,27.8966,-93.5973,2.0,328.0484694,11.33774228,-99999.0,'11111222,11111222,99999999' 
TABS,ioos:station:wmo:42047:1,2010-07-02T10:30:00Z,27.8966,-93.5973,2.0,323.4714405,7.392130951,-99999.0,'11133222,11111222,99999999' 
TABS,ioos:station:wmo:42047:1,2010-07-02T11:00:00Z,27.8966,-93.5973,2.0,344.0452369,8.185316121,-99999.0,'11133222,11111222,99999999' 
TABS,ioos:station:wmo:42047:1,2010-07-02T11:30:00Z,27.8966,-93.5973,2.0,345.3456619,7.86588838,-99999.0,'11133222,11111222,99999999' 
TABS,ioos:station:wmo:42047:1,2010-07-02T12:00:00Z,27.8966,-93.5973,2.0,333.8454457,9.369364973,-99999.0,'11133222,11111222,99999999' 
TABS,ioos:station:wmo:42047:1,2010-07-02T12:30:00Z,27.8966,-93.5973,2.0,335.3451452,11.00309502,-99999.0,'11111222,11111222,99999999' 
TABS,ioos:station:wmo:42047:1,2010-07-02T13:00:00Z,27.8966,-93.5973,2.0,25.56740817,3.081768973,-99999.0,'11133222,11111222,99999999' 
TABS,ioos:station:wmo:42047:1,2010-07-02T13:30:00Z,27.8966,-93.5973,2.0,348.5145024,7.030796541,-99999.0,'11133222,11111222,99999999' 
TABS,ioos:station:wmo:42047:1,2010-07-02T14:00:00Z,27.8966,-93.5973,2.0,338.8625184,10.26035574,-99999.0,'11111222,11111222,99999999' 
TABS,ioos:station:wmo:42047:1,2010-07-02T14:30:00Z,27.8966,-93.5973,2.0,349.5934764,12.06852518,-99999.0,'11111222,11111222,99999999' 
TABS,ioos:station:wmo:42047:1,2010-07-02T15:00:00Z,27.8966,-93.5973,2.0,320.5084912,5.377629589,-99999.0,'11133222,11111222,99999999' 
TABS,ioos:station:wmo:42047:1,2010-07-02T15:30:00Z,27.8966,-93.5973,2.0,330.420873,8.589441193,-99999.0,'11133222,11111222,99999999' 
TABS,ioos:station:wmo:42047:1,2010-07-02T16:00:00Z,27.8966,-93.5973,2.0,332.0473778,10.70943509,-99999.0,'11111222,11111222,99999999' 
TABS,ioos:station:wmo:42047:1,2010-07-02T16:30:00Z,27.8966,-93.5973,2.0,328.4338896,9.131089749,-99999.0,'11133222,11111222,99999999' 
TABS,ioos:station:wmo:42047:1,2010-07-02T17:00:00Z,27.8966,-93.5973,2.0,316.1166133,9.073902137,-99999.0,'11133222,11111222,99999999' 
TABS,ioos:station:wmo:42047:1,2010-07-02T17:30:00Z,27.8966,-93.5973,2.0,315.0575541,7.078142412,-99999.0,'11133222,11111222,99999999' 
TABS,ioos:station:wmo:42047:1,2010-07-02T18:00:00Z,27.8966,-93.5973,2.0,319.0522086,7.705511015,-99999.0,'11133222,11111222,99999999' 
TABS,ioos:station:wmo:42047:1,2010-07-02T18:30:00Z,27.8966,-93.5973,2.0,349.1858115,11.56540099,-99999.0,'11111222,11111222,99999999' 
TABS,ioos:station:wmo:42047:1,2010-07-02T19:00:00Z,27.8966,-93.5973,2.0,336.1311097,11.21959001,-99999.0,'11111222,11111222,99999999' 
TABS,ioos:station:wmo:42047:1,2010-07-02T19:30:00Z,27.8966,-93.5973,2.0,328.9735542,10.92275148,-99999.0,'11111222,11111222,99999999' 
TABS,ioos:station:wmo:42047:1,2010-07-02T20:00:00Z,27.8966,-93.5973,2.0,334.8972928,13.6712984,-99999.0,'11111222,11111222,99999999' 
TABS,ioos:station:wmo:42047:1,2010-07-02T20:30:00Z,27.8966,-93.5973,2.0,322.6196306,19.51877558,-99999.0,'11111222,11111222,99999999' 
TABS,ioos:station:wmo:42047:1,2010-07-02T21:00:00Z,27.8966,-93.5973,2.0,321.3734472,21.72221213,-99999.0,'11111222,11111222,99999999' 
TABS,ioos:station:wmo:42047:1,2010-07-02T21:30:00Z,27.8966,-93.5973,2.0,321.57054,19.83735113,-99999.0,'11111222,11111222,99999999' 
TABS,ioos:station:wmo:42047:1,2010-07-02T22:00:00Z,27.8966,-93.5973,2.0,341.7158082,15.65016613,-99999.0,'11111222,11111222,99999999' 
TABS,ioos:station:wmo:42047:1,2010-07-02T22:30:00Z,27.8966,-93.5973,2.0,350.73597265411,16.150653237563,-99999.0,'1111122,1111122,1199999999' 
TABS,ioos:station:wmo:42047:1,2010-07-02T23:00:00Z,27.8966,-93.5973,2.0,336.74805595644,12.690772238126,-99999.0,'1111122,1111122,1199999999' 
TABS,ioos:station:wmo:42047:1,2010-07-02T23:30:00Z,27.8966,-93.5973,2.0,3.8989706476001,8.5297420828534,-99999.0,'1111122,1111122,1199999999' 
TABS,ioos:station:wmo:42047:1,2010-07-03T00:00:00Z,27.8966,-93.5973,2.0,0.448141703,14.07042999,-99999.0,'11111222,11111222,99999999' 
TABS,ioos:station:wmo:42047:1,2010-07-03T00:30:00Z,27.8966,-93.5973,2.0,359.5799565,12.27033007,-99999.0,'11111222,11144222,99999999' 
TABS,ioos:station:wmo:42047:1,2010-07-03T01:00:00Z,27.8966,-93.5973,2.0,5.124128131,10.30116498,-99999.0,'11111222,11111222,99999999' 
TABS,ioos:station:wmo:42047:1,2010-07-03T01:30:00Z,27.8966,-93.5973,2.0,349.1269401,14.15411248,-99999.0,'11111222,11111222,99999999' 
TABS,ioos:station:wmo:42047:1,2010-07-03T02:00:00Z,27.8966,-93.5973,2.0,354.619207,15.56860944,-99999.0,'11111222,11111222,99999999' 
TABS,ioos:station:wmo:42047:1,2010-07-03T02:30:00Z,27.8966,-93.5973,2.0,7.072548722,17.54348027,-99999.0,'11111222,11111222,99999999' 
TABS,ioos:station:wmo:42047:1,2010-07-03T03:00:00Z,27.8966,-93.5973,2.0,15.02472876,8.7180273,-99999.0,'11133222,11111222,99999999' 
TABS,ioos:station:wmo:42047:1,2010-07-03T03:30:00Z,27.8966,-93.5973,2.0,12.7930038,15.53563967,-99999.0,'11111222,11111222,99999999' 
TABS,ioos:station:wmo:42047:1,2010-07-03T04:00:00Z,27.8966,-93.5973,2.0,18.97308764,13.47189667,-99999.0,'11111222,11111222,99999999' 
TABS,ioos:station:wmo:42047:1,2010-07-03T04:30:00Z,27.8966,-93.5973,2.0,24.46588797,13.06293229,-99999.0,'11111222,11111222,99999999' 
TABS,ioos:station:wmo:42047:1,2010-07-03T05:00:00Z,27.8966,-93.5973,2.0,358.4545126,12.60458647,-99999.0,'11111222,11111222,99999999' 
TABS,ioos:station:wmo:42047:1,2010-07-03T05:30:00Z,27.8966,-93.5973,2.0,21.42866269,16.83363894,-99999.0,'11111222,11111222,99999999' 
TABS,ioos:station:wmo:42047:1,2010-07-03T06:00:00Z,27.8966,-93.5973,2.0,17.46792791,14.42520364,-99999.0,'11111222,11111222,99999999' 
TABS,ioos:station:wmo:42047:1,2010-07-03T06:30:00Z,27.8966,-93.5973,2.0,1.909358427,13.80766454,-99999.0,'11111222,11111222,99999999' 
TABS,ioos:station:wmo:42047:1,2010-07-03T07:00:00Z,27.8966,-93.5973,2.0,11.73712567,13.42059984,-99999.0,'11111222,11111222,99999999' 
TABS,ioos:station:wmo:42047:1,2010-07-03T07:30:00Z,27.8966,-93.5973,2.0,12.12607255,11.5681027,-99999.0,'11111222,11111222,99999999' 
TABS,ioos:station:wmo:42047:1,2010-07-03T08:00:00Z,27.8966,-93.5973,2.0,23.99876643,12.88373005,-99999.0,'11111222,11111222,99999999' 
TABS,ioos:station:wmo:42047:1,2010-07-03T08:30:00Z,27.8966,-93.5973,2.0,36.73845921,17.42004592,-99999.0,'11111222,11111222,99999999' 
TABS,ioos:station:wmo:42047:1,2010-07-03T09:00:00Z,27.8966,-93.5973,2.0,22.80803722,10.78313498,-99999.0,'11111222,11111222,99999999' 
TABS,ioos:station:wmo:42047:1,2010-07-03T09:30:00Z,27.8966,-93.5973,2.0,16.90910076,12.82442201,-99999.0,'11111222,11111222,99999999' 
TABS,ioos:station:wmo:42047:1,2010-07-03T10:00:00Z,27.8966,-93.5973,2.0,4.936223026,11.04094652,-99999.0,'11111222,11111222,99999999' 
TABS,ioos:station:wmo:42047:1,2010-07-03T10:30:00Z,27.8966,-93.5973,2.0,37.56379613,14.20504136,-99999.0,'11111222,11111222,99999999' 
TABS,ioos:station:wmo:42047:1,2010-07-03T11:00:00Z,27.8966,-93.5973,2.0,31.30263179,8.122314941,-99999.0,'11133222,11111222,99999999' 
TABS,ioos:station:wmo:42047:1,2010-07-03T11:30:00Z,27.8966,-93.5973,2.0,40.64972014,12.86398072,-99999.0,'11111222,11111222,99999999' 
TABS,ioos:station:wmo:42047:1,2010-07-03T12:00:00Z,27.8966,-93.5973,2.0,46.16277237,7.666615942,-99999.0,'11133222,11111222,99999999' 
TABS,ioos:station:wmo:42047:1,2010-07-03T12:30:00Z,27.8966,-93.5973,2.0,32.47574539,9.94523504,-99999.0,'11133222,11111222,99999999' 
TABS,ioos:station:wmo:42047:1,2010-07-03T13:00:00Z,27.8966,-93.5973,2.0,56.10707593,7.047510199,-99999.0,'11133222,11111222,99999999' 
TABS,ioos:station:wmo:42047:1,2010-07-03T13:30:00Z,27.8966,-93.5973,2.0,34.8990105,12.09515606,-99999.0,'11111222,11111222,99999999' 
TABS,ioos:station:wmo:42047:1,2010-07-03T14:00:00Z,27.8966,-93.5973,2.0,52.61391985,9.76639647,-99999.0,'11133222,11111222,99999999' 
TABS,ioos:station:wmo:42047:1,2010-07-03T14:30:00Z,27.8966,-93.5973,2.0,59.45409934,10.11354043,-99999.0,'11111222,11111222,99999999' 
TABS,ioos:station:wmo:42047:1,2010-07-03T15:00:00Z,27.8966,-93.5973,2.0,32.2757793,9.213604072,-99999.0,'11133222,11111222,99999999' 
TABS,ioos:station:wmo:42047:1,2010-07-03T15:30:00Z,27.8966,-93.5973,2.0,32.1198242,8.501199915,-99999.0,'11133222,11111222,99999999' 
TABS,ioos:station:wmo:42047:1,2010-07-03T16:00:00Z,27.8966,-93.5973,2.0,43.52072671,11.7772535,-99999.0,'11111222,11111222,99999999' 
TABS,ioos:station:wmo:42047:1,2010-07-03T16:30:00Z,27.8966,-93.5973,2.0,29.7715541,10.71412152,-99999.0,'11111222,11111222,99999999' 
TABS,ioos:station:wmo:42047:1,2010-07-03T17:00:00Z,27.8966,-93.5973,2.0,27.97534022,11.0853101,-99999.0,'11111222,11111222,99999999' 
TABS,ioos:station:wmo:42047:1,2010-07-03T17:30:00Z,27.8966,-93.5973,2.0,77.56166452,6.871280812,-99999.0,'11133222,11111222,99999999' 
TABS,ioos:station:wmo:42047:1,2010-07-03T18:00:00Z,27.8966,-93.5973,2.0,18.4633824,6.409937597,-99999.0,'11133222,11111222,99999999' 
TABS,ioos:station:wmo:42047:1,2010-07-03T18:30:00Z,27.8966,-93.5973,2.0,289.2390204,1.578131807,-99999.0,'11133222,11111222,99999999' 
TABS,ioos:station:wmo:42047:1,2010-07-03T19:00:00Z,27.8966,-93.5973,2.0,8.22557472,5.102489588,-99999.0,'11133222,11111222,99999999' 
TABS,ioos:station:wmo:42047:1,2010-07-03T19:30:00Z,27.8966,-93.5973,2.0,273.7419476,3.677839039,-99999.0,'11133222,11111222,99999999' 
TABS,ioos:station:wmo:42047:1,2010-07-03T20:00:00Z,27.8966,-93.5973,2.0,22.30145117,2.766965847,-99999.0,'11133222,11111222,99999999' 
TABS,ioos:station:wmo:42047:1,2010-07-04T00:00:00Z,27.8966,-93.5973,2.0,332.9664821,14.2129237,-99999.0,'11111222,11111222,99999999' 
TABS,ioos:station:wmo:42047:1,2010-07-04T00:30:00Z,27.8966,-93.5973,2.0,330.5458796,16.14704927,-99999.0,'11111222,11111222,99999999' 
TABS,ioos:station:wmo:42047:1,2010-07-04T01:00:00Z,27.8966,-93.5973,2.0,347.8483716,16.81681302,-99999.0,'11111222,11111222,99999999' 
TABS,ioos:station:wmo:42047:1,2010-07-04T01:30:00Z,27.8966,-93.5973,2.0,353.3325323,21.44504838,-99999.0,'11111222,11111222,99999999' 
TABS,ioos:station:wmo:42047:1,2010-07-04T02:00:00Z,27.8966,-93.5973,2.0,355.6529337,19.65655361,-99999.0,'11111222,11111222,99999999' 
TABS,ioos:station:wmo:42047:1,2010-07-04T02:30:00Z,27.8966,-93.5973,2.0,1.031045949,18.34296868,-99999.0,'11111222,11111222,99999999' 
TABS,ioos:station:wmo:42047:1,2010-07-04T03:00:00Z,27.8966,-93.5973,2.0,14.94195885,17.80191282,-99999.0,'11111222,11111222,99999999' 
TABS,ioos:station:wmo:42047:1,2010-07-04T03:30:00Z,27.8966,-93.5973,2.0,358.7555089,18.87445363,-99999.0,'11111222,11111222,99999999' 
TABS,ioos:station:wmo:42047:1,2010-07-04T04:00:00Z,27.8966,-93.5973,2.0,1.547604517,20.36742743,-99999.0,'11111222,11111222,99999999' 
TABS,ioos:station:wmo:42047:1,2010-07-04T04:30:00Z,27.8966,-93.5973,2.0,7.56524709,16.63478885,-99999.0,'11111222,11111222,99999999' 
TABS,ioos:station:wmo:42047:1,2010-07-04T05:00:00Z,27.8966,-93.5973,2.0,7.016695796,13.09809146,-99999.0,'11111222,11111222,99999999' 
TABS,ioos:station:wmo:42047:1,2010-07-04T05:30:00Z,27.8966,-93.5973,2.0,14.33472965,13.97509213,-99999.0,'11111222,11111222,99999999' 
TABS,ioos:station:wmo:42047:1,2010-07-04T06:00:00Z,27.8966,-93.5973,2.0,5.540655201,11.39322606,-99999.0,'11111222,11111222,99999999' 
TABS,ioos:station:wmo:42047:1,2010-07-04T06:30:00Z,27.8966,-93.5973,2.0,12.74104075,12.01586035,-99999.0,'11111222,11111222,99999999' 
TABS,ioos:station:wmo:42047:1,2010-07-04T07:00:00Z,27.8966,-93.5973,2.0,20.85111584,7.27654451,-99999.0,'11133222,11111222,99999999' 
TABS,ioos:station:wmo:42047:1,2010-07-04T07:30:00Z,27.8966,-93.5973,2.0,28.09417686,9.385883017,-99999.0,'11133222,11111222,99999999' 
TABS,ioos:station:wmo:42047:1,2010-07-04T08:00:00Z,27.8966,-93.5973,2.0,45.69785261,10.45181324,-99999.0,'11111222,11111222,99999999' 
TABS,ioos:station:wmo:42047:1,2010-07-04T08:30:00Z,27.8966,-93.5973,2.0,29.75001007,14.24787002,-99999.0,'11111222,11111222,99999999' 
TABS,ioos:station:wmo:42047:1,2010-07-04T09:00:00Z,27.8966,-93.5973,2.0,42.03461905,15.30814816,-99999.0,'11111222,11111222,99999999' 
TABS,ioos:station:wmo:42047:1,2010-07-04T09:30:00Z,27.8966,-93.5973,2.0,25.10750937,13.00918137,-99999.0,'11111222,11111222,99999999' 
TABS,ioos:station:wmo:42047:1,2010-07-04T10:00:00Z,27.8966,-93.5973,2.0,37.62286686,13.54716945,-99999.0,'11111222,11111222,99999999' 
TABS,ioos:station:wmo:42047:1,2010-07-04T10:30:00Z,27.8966,-93.5973,2.0,49.38035947,16.85007418,-99999.0,'11111222,11111222,99999999' 
TABS,ioos:station:wmo:42047:1,2010-07-04T11:00:00Z,27.8966,-93.5973,2.0,50.26974599,14.62822614,-99999.0,'11111222,11111222,99999999' 
TABS,ioos:station:wmo:42047:1,2010-07-04T11:30:00Z,27.8966,-93.5973,2.0,51.31999572,13.23260367,-99999.0,'11111222,11111222,99999999' 
TABS,ioos:station:wmo:42047:1,2010-07-04T12:00:00Z,27.8966,-93.5973,2.0,61.43612602,8.84679603,-99999.0,'11133222,11111222,99999999' 
TABS,ioos:station:wmo:42047:1,2010-07-04T12:30:00Z,27.8966,-93.5973,2.0,66.52680772,15.33939373,-99999.0,'11111222,11111222,99999999' 
TABS,ioos:station:wmo:42047:1,2010-07-04T13:00:00Z,27.8966,-93.5973,2.0,73.87706575,11.52323305,-99999.0,'11111222,11111222,99999999' 
TABS,ioos:station:wmo:42047:1,2010-07-04T13:30:00Z,27.8966,-93.5973,2.0,92.11132569,13.02884492,-99999.0,'11111222,11111222,99999999' 
TABS,ioos:station:wmo:42047:1,2010-07-04T14:00:00Z,27.8966,-93.5973,2.0,110.1401805,13.70822016,-99999.0,'11111222,11111222,99999999' 
TABS,ioos:station:wmo:42047:1,2010-07-04T14:30:00Z,27.8966,-93.5973,2.0,107.6086804,8.99129023,-99999.0,'11133222,11111222,99999999' 
TABS,ioos:station:wmo:42047:1,2010-07-04T15:00:00Z,27.8966,-93.5973,2.0,104.0732074,11.26820749,-99999.0,'11111222,11111222,99999999' 
TABS,ioos:station:wmo:42047:1,2010-07-04T15:30:00Z,27.8966,-93.5973,2.0,99.49160731,12.85600249,-99999.0,'11111222,11111222,99999999' 
TABS,ioos:station:wmo:42047:1,2010-07-04T16:00:00Z,27.8966,-93.5973,2.0,122.4993362,4.671584314,-99999.0,'11133222,11111222,99999999' 
TABS,ioos:station:wmo:42047:1,2010-07-04T16:30:00Z,27.8966,-93.5973,2.0,145.947175,11.39377023,-99999.0,'11111222,11111222,99999999' 
TABS,ioos:station:wmo:42047:1,2010-07-04T17:00:00Z,27.8966,-93.5973,2.0,127.2188667,9.192170582,-99999.0,'11133222,11111222,99999999' 
TABS,ioos:station:wmo:42047:1,2010-07-04T17:30:00Z,27.8966,-93.5973,2.0,135.3986979,9.143112162,-99999.0,'11133222,11111222,99999999' 
TABS,ioos:station:wmo:42047:1,2010-07-04T18:00:00Z,27.8966,-93.5973,2.0,154.7248097,5.363450382,-99999.0,'11133222,11111222,99999999' 
TABS,ioos:station:wmo:42047:1,2010-07-04T19:00:00Z,27.8966,-93.5973,2.0,196.71167012396,4.4165371050179,-99999.0,'1111122,1111122,1199999999' 
TABS,ioos:station:wmo:42047:1,2010-07-04T19:30:00Z,27.8966,-93.5973,2.0,285.0352346638,6.3990624313254,-99999.0,'1111122,1111122,1199999999' 